Tracking 28794 objects as of 19-Apr-2024
HD Live streaming from Space Station
objects crossing your sky now

FENGYUN 1C DEB

Track FENGYUN 1C DEB now!
10-day predictions


NORAD ID: 37447
Int'l Code: 1999-025EHR
Perigee: 819.6 km
Apogee: 882.4 km
Inclination: 98.9 °
Period: 101.8 minutes
Semi major axis: 7222 km
RCS: 0.0073 m2 (small)
Launch date: May 10, 1999
Source: People's Republic of China (PRC)
Launch site: Taiyaun Space Center, China (TSC)

Note: This is SATELLITE DEBRIS
Your satellite tracking list
Your tracking list is empty




NASA's NSSDC Master Catalog

Two Line Element Set (TLE):
1 37447U 99025EHR 24110.39490920  .00004158  00000-0  21687-2 0  9998
2 37447  98.8599 169.0558 0043427 148.0519 274.0510 14.14541924549324
Source of the keplerian elements: AFSPC